Time,TemperatureF,DewpointF,PressureIn,WindDirection,WindDirectionDegrees,WindSpeedMPH,WindSpeedGustMPH,Humidity,HourlyPrecipIn,Conditions,Clouds,dailyrainin,SoftwareType,DateUTC
2013-06-15 00:02:00,72.0,64.0,29.84,North,0,0.0,-999.0,78,-99.99,,,-99.99,,2013-06-15 05:02:00,
2013-06-15 00:12:00,72.0,66.0,29.86,East,90,5.0,-999.0,83,-99.99,,,-99.99,,2013-06-15 05:12:00,
2013-06-15 00:22:00,72.0,66.0,29.86,East,90,5.0,-999.0,83,-99.99,,,-99.99,,2013-06-15 05:22:00,
2013-06-15 00:34:00,72.0,64.0,29.88,East,100,6.0,-999.0,78,-99.99,,,-99.99,,2013-06-15 05:34:00,
2013-06-15 00:42:00,72.0,64.0,29.88,East,100,6.0,-999.0,78,-99.99,,,-99.99,,2013-06-15 05:42:00,
2013-06-15 00:52:00,70.0,66.0,29.89,East,90,9.0,-999.0,88,-99.99,,,-99.99,,2013-06-15 05:52:00,
2013-06-15 01:02:00,70.0,66.0,29.89,East,90,9.0,-999.0,88,-99.99,,,-99.99,,2013-06-15 06:02:00,
2013-06-15 01:12:00,70.0,64.0,29.92,East,100,5.0,-999.0,82,-99.99,,,-99.99,,2013-06-15 06:12:00,
2013-06-15 01:24:00,70.0,64.0,29.92,East,100,5.0,-999.0,82,-99.99,,,-99.99,,2013-06-15 06:24:00,
2013-06-15 01:33:00,70.0,66.0,29.92,East,100,7.0,-999.0,88,-99.99,,,-99.99,,2013-06-15 06:33:00,
2013-06-15 01:43:00,70.0,66.0,29.92,East,100,7.0,-999.0,88,-99.99,,,-99.99,,2013-06-15 06:43:00,
2013-06-15 01:53:00,68.0,64.0,29.92,North,0,0.0,-999.0,88,-99.99,,,-99.99,,2013-06-15 06:53:00,
2013-06-15 02:01:00,68.0,64.0,29.92,North,0,0.0,-999.0,88,-99.99,,,-99.99,,2013-06-15 07:01:00,
2013-06-15 02:11:00,68.0,66.0,29.92,North,0,0.0,-999.0,93,-99.99,,,-99.99,,2013-06-15 07:11:00,
2013-06-15 02:23:00,68.0,66.0,29.92,North,0,0.0,-999.0,93,-99.99,,,-99.99,,2013-06-15 07:23:00,
2013-06-15 02:33:00,68.0,64.0,29.92,ESE,110,7.0,-999.0,88,-99.99,,,-99.99,,2013-06-15 07:33:00,
2013-06-15 02:43:00,68.0,64.0,29.92,ESE,110,7.0,-999.0,88,-99.99,,,-99.99,,2013-06-15 07:43:00,
2013-06-15 02:53:00,68.0,64.0,29.94,SE,130,8.0,-999.0,88,-99.99,,,-99.99,,2013-06-15 07:53:00,
2013-06-15 03:02:00,68.0,64.0,29.94,SE,130,8.0,-999.0,88,-99.99,,,-99.99,,2013-06-15 08:02:00,
2013-06-15 03:11:00,68.0,64.0,29.92,SSE,150,5.0,-999.0,88,-99.99,,,-99.99,,2013-06-15 08:11:00,
2013-06-15 03:22:00,68.0,64.0,29.92,SSE,150,5.0,-999.0,88,-99.99,,,-99.99,,2013-06-15 08:22:00,
2013-06-15 03:33:00,68.0,64.0,29.91,SE,130,7.0,-999.0,88,-99.99,,,-99.99,,2013-06-15 08:33:00,
2013-06-15 03:42:00,68.0,64.0,29.91,SE,130,7.0,-999.0,88,-99.99,,,-99.99,,2013-06-15 08:42:00,
2013-06-15 03:53:00,68.0,64.0,29.91,SSE,160,8.0,-999.0,88,-99.99,,,-99.99,,2013-06-15 08:53:00,
2013-06-15 04:02:00,68.0,64.0,29.91,SSE,160,8.0,-999.0,88,-99.99,,,-99.99,,2013-06-15 09:02:00,
2013-06-15 04:12:00,68.0,64.0,29.91,South,170,9.0,-999.0,88,-99.99,,,-99.99,,2013-06-15 09:12:00,
2013-06-15 04:22:00,68.0,64.0,29.91,South,170,9.0,-999.0,88,-99.99,,,-99.99,,2013-06-15 09:22:00,
2013-06-15 04:33:00,68.0,64.0,29.92,South,180,10.0,-999.0,88,-99.99,,,-99.99,,2013-06-15 09:33:00,
2013-06-15 04:43:00,68.0,64.0,29.92,South,180,10.0,-999.0,88,-99.99,,,-99.99,,2013-06-15 09:43:00,
2013-06-15 04:52:00,66.0,63.0,29.92,SSE,160,6.0,-999.0,88,-99.99,,,-99.99,,2013-06-15 09:52:00,
2013-06-15 05:02:00,66.0,63.0,29.92,SSE,160,6.0,-999.0,88,-99.99,,,-99.99,,2013-06-15 10:02:00,
2013-06-15 05:11:00,66.0,63.0,29.90,North,0,0.0,-999.0,88,-99.99,,,-99.99,,2013-06-15 10:11:00,
2013-06-15 05:23:00,66.0,63.0,29.90,North,0,0.0,-999.0,88,-99.99,,,-99.99,,2013-06-15 10:23:00,
2013-06-15 05:33:00,66.0,63.0,29.90,North,0,0.0,-999.0,88,-99.99,,,-99.99,,2013-06-15 10:33:00,
2013-06-15 05:43:00,66.0,63.0,29.90,North,0,0.0,-999.0,88,-99.99,,,-99.99,,2013-06-15 10:43:00,
2013-06-15 05:53:00,64.0,63.0,29.89,NE,40,5.0,-999.0,93,-99.99,,,-99.99,,2013-06-15 10:53:00,
2013-06-15 06:02:00,64.0,63.0,29.89,NE,40,5.0,-999.0,93,-99.99,,,-99.99,,2013-06-15 11:02:00,
2013-06-15 06:11:00,64.0,63.0,29.91,North,0,0.0,-999.0,93,-99.99,,,-99.99,,2013-06-15 11:11:00,
2013-06-15 06:22:00,64.0,63.0,29.91,North,0,0.0,-999.0,93,-99.99,,,-99.99,,2013-06-15 11:22:00,
2013-06-15 06:33:00,64.0,63.0,29.92,North,0,0.0,-999.0,93,-99.99,,,-99.99,,2013-06-15 11:33:00,
2013-06-15 06:43:00,64.0,63.0,29.92,North,0,0.0,-999.0,93,-99.99,,,-99.99,,2013-06-15 11:43:00,
2013-06-15 06:53:00,64.0,63.0,29.93,North,0,0.0,-999.0,93,-99.99,,,-99.99,,2013-06-15 11:53:00,
2013-06-15 07:01:00,64.0,63.0,29.93,North,0,0.0,-999.0,93,-99.99,,,-99.99,,2013-06-15 12:01:00,
2013-06-15 07:11:00,66.0,64.0,29.92,North,0,0.0,-999.0,93,-99.99,,,-99.99,,2013-06-15 12:11:00,
2013-06-15 07:22:00,66.0,64.0,29.92,North,0,0.0,-999.0,93,-99.99,,,-99.99,,2013-06-15 12:22:00,
2013-06-15 07:33:00,68.0,64.0,29.93,North,0,0.0,-999.0,88,-99.99,,,-99.99,,2013-06-15 12:33:00,
2013-06-15 07:43:00,68.0,64.0,29.93,North,0,0.0,-999.0,88,-99.99,,,-99.99,,2013-06-15 12:43:00,
2013-06-15 07:52:00,70.0,64.0,29.93,North,0,0.0,-999.0,82,-99.99,,,-99.99,,2013-06-15 12:52:00,
2013-06-15 08:02:00,70.0,64.0,29.93,North,0,0.0,-999.0,82,-99.99,,,-99.99,,2013-06-15 13:02:00,
2013-06-15 08:11:00,68.0,64.0,29.94,North,350,6.0,-999.0,88,-99.99,,,-99.99,,2013-06-15 13:11:00,
2013-06-15 08:22:00,68.0,64.0,29.94,North,350,6.0,-999.0,88,-99.99,,,-99.99,,2013-06-15 13:22:00,
2013-06-15 08:32:00,68.0,64.0,29.92,North,350,8.0,-999.0,88,-99.99,,,-99.99,,2013-06-15 13:32:00,
2013-06-15 08:43:00,68.0,64.0,29.92,North,350,8.0,-999.0,88,-99.99,,,-99.99,,2013-06-15 13:43:00,
2013-06-15 08:53:00,68.0,64.0,29.96,North,350,5.0,-999.0,88,-99.99,,,-99.99,,2013-06-15 13:53:00,
2013-06-15 09:01:00,68.0,64.0,29.96,North,350,5.0,-999.0,88,-99.99,,,-99.99,,2013-06-15 14:01:00,
2013-06-15 09:12:00,68.0,64.0,29.96,NNE,20,7.0,-999.0,88,-99.99,,,-99.99,,2013-06-15 14:12:00,
2013-06-15 09:22:00,68.0,64.0,29.96,NNE,20,7.0,-999.0,88,-99.99,,,-99.99,,2013-06-15 14:22:00,
2013-06-15 09:34:00,66.0,64.0,29.96,North,350,10.0,15.0,93,-99.99,,,-99.99,,2013-06-15 14:34:00,
2013-06-15 09:43:00,66.0,64.0,29.96,North,350,10.0,15.0,93,-99.99,,,-99.99,,2013-06-15 14:43:00,
2013-06-15 09:53:00,66.0,64.0,30.02,WSW,240,8.0,-999.0,93,-99.99,,,-99.99,,2013-06-15 14:53:00,
2013-06-15 10:02:00,66.0,64.0,30.02,WSW,240,8.0,-999.0,93,-99.99,,,-99.99,,2013-06-15 15:02:00,
2013-06-15 10:11:00,66.0,64.0,30.03,SSE,150,8.0,-999.0,93,-99.99,,,-99.99,,2013-06-15 15:11:00,
2013-06-15 10:22:00,66.0,64.0,30.03,SSE,150,8.0,-999.0,93,-99.99,,,-99.99,,2013-06-15 15:22:00,
2013-06-15 10:33:00,66.0,64.0,30.04,WSW,240,14.0,-999.0,93,-99.99,,,-99.99,,2013-06-15 15:33:00,
2013-06-15 10:43:00,66.0,64.0,30.04,WSW,240,14.0,-999.0,93,-99.99,,,-99.99,,2013-06-15 15:43:00,
2013-06-15 10:53:00,64.0,64.0,30.04,SSW,210,14.0,-999.0,100,-99.99,,,-99.99,,2013-06-15 15:53:00,
2013-06-15 11:01:00,64.0,64.0,30.04,SSW,210,14.0,-999.0,100,-99.99,,,-99.99,,2013-06-15 16:01:00,
2013-06-15 11:11:00,64.0,64.0,29.98,North,350,12.0,-999.0,100,-99.99,,,-99.99,,2013-06-15 16:11:00,
2013-06-15 11:22:00,64.0,64.0,29.98,North,350,12.0,-999.0,100,-99.99,,,-99.99,,2013-06-15 16:22:00,
2013-06-15 11:33:00,64.0,64.0,29.90,NNE,30,17.0,27.0,100,-99.99,,,-99.99,,2013-06-15 16:33:00,
2013-06-15 11:43:00,64.0,64.0,29.90,NNE,30,17.0,27.0,100,-99.99,,,-99.99,,2013-06-15 16:43:00,
2013-06-15 11:53:00,66.0,64.0,29.89,NNE,30,20.0,25.0,93,-99.99,,,-99.99,,2013-06-15 16:53:00,
2013-06-15 12:02:00,66.0,64.0,29.89,NNE,30,20.0,25.0,93,-99.99,,,-99.99,,2013-06-15 17:02:00,
2013-06-15 12:12:00,70.0,66.0,29.92,North,10,15.0,20.0,88,-99.99,,,-99.99,,2013-06-15 17:12:00,
2013-06-15 12:21:00,70.0,66.0,29.92,North,10,15.0,20.0,88,-99.99,,,-99.99,,2013-06-15 17:21:00,
2013-06-15 12:32:00,70.0,66.0,29.94,NNE,20,14.0,22.0,88,-99.99,,,-99.99,,2013-06-15 17:32:00,
2013-06-15 12:43:00,70.0,66.0,29.94,NNE,20,14.0,22.0,88,-99.99,,,-99.99,,2013-06-15 17:43:00,
2013-06-15 12:52:00,72.0,64.0,29.94,NNE,30,15.0,20.0,78,-99.99,,,-99.99,,2013-06-15 17:52:00,
2013-06-15 13:01:00,72.0,64.0,29.94,NNE,30,15.0,20.0,78,-99.99,,,-99.99,,2013-06-15 18:01:00,
2013-06-15 13:12:00,73.0,66.0,29.93,NNE,30,13.0,18.0,78,-99.99,,,-99.99,,2013-06-15 18:12:00,
2013-06-15 13:22:00,73.0,66.0,29.93,NNE,30,13.0,18.0,78,-99.99,,,-99.99,,2013-06-15 18:22:00,
2013-06-15 13:32:00,73.0,66.0,29.95,NNE,20,12.0,16.0,78,-99.99,,,-99.99,,2013-06-15 18:32:00,
2013-06-15 13:43:00,73.0,66.0,29.95,NNE,20,12.0,16.0,78,-99.99,,,-99.99,,2013-06-15 18:43:00,
2013-06-15 13:53:00,75.0,64.0,29.96,NE,40,12.0,-999.0,69,-99.99,,,-99.99,,2013-06-15 18:53:00,
2013-06-15 14:01:00,75.0,64.0,29.96,NE,40,12.0,-999.0,69,-99.99,,,-99.99,,2013-06-15 19:01:00,
2013-06-15 14:11:00,75.0,68.0,29.97,South,170,12.0,-999.0,78,-99.99,,,-99.99,,2013-06-15 19:11:00,
2013-06-15 14:22:00,75.0,68.0,29.97,South,170,12.0,-999.0,78,-99.99,,,-99.99,,2013-06-15 19:22:00,
2013-06-15 14:33:00,75.0,66.0,29.97,North,360,6.0,-999.0,73,-99.99,,,-99.99,,2013-06-15 19:33:00,
2013-06-15 14:43:00,75.0,66.0,29.97,North,360,6.0,-999.0,73,-99.99,,,-99.99,,2013-06-15 19:43:00,
2013-06-15 14:52:00,75.0,68.0,29.97,NNW,330,7.0,-999.0,78,-99.99,,,-99.99,,2013-06-15 19:52:00,
2013-06-15 15:02:00,75.0,68.0,29.97,NNW,330,7.0,-999.0,78,-99.99,,,-99.99,,2013-06-15 20:02:00,
2013-06-15 15:11:00,75.0,68.0,29.97,North,360,8.0,-999.0,78,-99.99,,,-99.99,,2013-06-15 20:11:00,
2013-06-15 15:22:00,75.0,68.0,29.97,North,360,8.0,-999.0,78,-99.99,,,-99.99,,2013-06-15 20:22:00,
2013-06-15 15:33:00,75.0,66.0,29.97,North,10,7.0,-999.0,73,-99.99,,,-99.99,,2013-06-15 20:33:00,
2013-06-15 15:43:00,75.0,66.0,29.97,North,10,7.0,-999.0,73,-99.99,,,-99.99,,2013-06-15 20:43:00,
2013-06-15 15:52:00,77.0,66.0,29.97,NW,320,8.0,-999.0,69,-99.99,,,-99.99,,2013-06-15 20:52:00,
2013-06-15 16:01:00,77.0,66.0,29.97,NW,320,8.0,-999.0,69,-99.99,,,-99.99,,2013-06-15 21:01:00,
2013-06-15 16:11:00,77.0,66.0,29.97,North,10,5.0,-999.0,69,-99.99,,,-99.99,,2013-06-15 21:11:00,
2013-06-15 16:22:00,77.0,66.0,29.97,North,10,5.0,-999.0,69,-99.99,,,-99.99,,2013-06-15 21:22:00,
2013-06-15 16:33:00,79.0,63.0,29.97,NNW,340,5.0,-999.0,57,-99.99,,,-99.99,,2013-06-15 21:33:00,
2013-06-15 16:42:00,79.0,63.0,29.97,NNW,340,5.0,-999.0,57,-99.99,,,-99.99,,2013-06-15 21:42:00,
2013-06-15 16:52:00,79.0,64.0,29.96,North,350,5.0,-999.0,61,-99.99,,,-99.99,,2013-06-15 21:52:00,
2013-06-15 17:01:00,79.0,64.0,29.96,North,350,5.0,-999.0,61,-99.99,,,-99.99,,2013-06-15 22:01:00,
2013-06-15 17:11:00,81.0,63.0,29.95,North,0,0.0,-999.0,54,-99.99,,,-99.99,,2013-06-15 22:11:00,
2013-06-15 17:22:00,81.0,63.0,29.95,North,0,0.0,-999.0,54,-99.99,,,-99.99,,2013-06-15 22:22:00,
2013-06-15 17:32:00,81.0,64.0,29.94,North,10,6.0,-999.0,57,-99.99,,,-99.99,,2013-06-15 22:32:00,
2013-06-15 17:42:00,81.0,64.0,29.94,North,10,6.0,-999.0,57,-99.99,,,-99.99,,2013-06-15 22:42:00,
2013-06-15 17:53:00,81.0,63.0,29.94,NNW,330,6.0,-999.0,54,-99.99,,,-99.99,,2013-06-15 22:53:00,
2013-06-15 18:02:00,81.0,63.0,29.94,NNW,330,6.0,-999.0,54,-99.99,,,-99.99,,2013-06-15 23:02:00,
2013-06-15 18:11:00,81.0,61.0,29.94,North,350,7.0,-999.0,50,-99.99,,,-99.99,,2013-06-15 23:11:00,
2013-06-15 18:22:00,81.0,61.0,29.94,North,350,7.0,-999.0,50,-99.99,,,-99.99,,2013-06-15 23:22:00,
2013-06-15 18:33:00,81.0,63.0,29.93,NNW,330,6.0,-999.0,54,-99.99,,,-99.99,,2013-06-15 23:33:00,
2013-06-15 18:42:00,81.0,63.0,29.93,NNW,330,6.0,-999.0,54,-99.99,,,-99.99,,2013-06-15 23:42:00,
2013-06-15 18:53:00,81.0,63.0,29.93,NNW,330,6.0,-999.0,54,-99.99,,,-99.99,,2013-06-15 23:53:00,
2013-06-15 19:01:00,81.0,63.0,29.93,NNW,330,6.0,-999.0,54,-99.99,,,-99.99,,2013-06-16 00:01:00,
2013-06-15 19:11:00,81.0,63.0,29.93,North,350,8.0,-999.0,54,-99.99,,,-99.99,,2013-06-16 00:11:00,
2013-06-15 19:22:00,81.0,63.0,29.93,North,350,8.0,-999.0,54,-99.99,,,-99.99,,2013-06-16 00:22:00,
2013-06-15 19:33:00,81.0,63.0,29.93,NNW,340,6.0,-999.0,54,-99.99,,,-99.99,,2013-06-16 00:33:00,
2013-06-15 19:43:00,81.0,63.0,29.93,NNW,340,6.0,-999.0,54,-99.99,,,-99.99,,2013-06-16 00:43:00,
2013-06-15 19:52:00,81.0,64.0,29.93,North,350,7.0,-999.0,57,-99.99,,,-99.99,,2013-06-16 00:52:00,
2013-06-15 20:01:00,81.0,64.0,29.93,North,350,7.0,-999.0,57,-99.99,,,-99.99,,2013-06-16 01:01:00,
2013-06-15 20:11:00,79.0,64.0,29.94,North,360,6.0,-999.0,61,-99.99,,,-99.99,,2013-06-16 01:11:00,
2013-06-15 20:22:00,79.0,64.0,29.94,North,360,6.0,-999.0,61,-99.99,,,-99.99,,2013-06-16 01:22:00,
2013-06-15 20:33:00,79.0,64.0,29.93,North,0,0.0,-999.0,61,-99.99,,,-99.99,,2013-06-16 01:33:00,
2013-06-15 20:42:00,79.0,64.0,29.93,North,0,0.0,-999.0,61,-99.99,,,-99.99,,2013-06-16 01:42:00,
2013-06-15 20:53:00,77.0,66.0,29.93,North,0,0.0,-999.0,69,-99.99,,,-99.99,,2013-06-16 01:53:00,
2013-06-15 21:01:00,77.0,66.0,29.93,North,0,0.0,-999.0,69,-99.99,,,-99.99,,2013-06-16 02:01:00,
2013-06-15 21:12:00,75.0,68.0,29.94,North,0,0.0,-999.0,78,-99.99,,,-99.99,,2013-06-16 02:12:00,
2013-06-15 21:22:00,75.0,68.0,29.94,North,0,0.0,-999.0,78,-99.99,,,-99.99,,2013-06-16 02:22:00,
2013-06-15 21:33:00,73.0,66.0,29.95,North,0,0.0,-999.0,78,-99.99,,,-99.99,,2013-06-16 02:33:00,
2013-06-15 21:43:00,73.0,66.0,29.95,North,0,0.0,-999.0,78,-99.99,,,-99.99,,2013-06-16 02:43:00,
2013-06-15 21:53:00,73.0,66.0,29.96,North,0,0.0,-999.0,78,-99.99,,,-99.99,,2013-06-16 02:53:00,
2013-06-15 22:02:00,73.0,66.0,29.96,North,0,0.0,-999.0,78,-99.99,,,-99.99,,2013-06-16 03:02:00,
2013-06-15 22:11:00,72.0,66.0,29.97,North,0,0.0,-999.0,83,-99.99,,,-99.99,,2013-06-16 03:11:00,
2013-06-15 22:22:00,72.0,66.0,29.97,North,0,0.0,-999.0,83,-99.99,,,-99.99,,2013-06-16 03:22:00,
2013-06-15 22:33:00,70.0,66.0,29.98,North,0,0.0,-999.0,88,-99.99,,,-99.99,,2013-06-16 03:33:00,
2013-06-15 22:43:00,70.0,66.0,29.98,North,0,0.0,-999.0,88,-99.99,,,-99.99,,2013-06-16 03:43:00,
2013-06-15 22:53:00,70.0,66.0,29.99,North,0,0.0,-999.0,88,-99.99,,,-99.99,,2013-06-16 03:53:00,
2013-06-15 23:02:00,70.0,66.0,29.99,North,0,0.0,-999.0,88,-99.99,,,-99.99,,2013-06-16 04:02:00,
2013-06-15 23:12:00,68.0,64.0,29.99,North,0,0.0,-999.0,88,-99.99,,,-99.99,,2013-06-16 04:12:00,
2013-06-15 23:23:00,68.0,64.0,29.99,North,0,0.0,-999.0,88,-99.99,,,-99.99,,2013-06-16 04:23:00,
2013-06-15 23:33:00,68.0,66.0,29.99,North,0,0.0,-999.0,93,-99.99,,,-99.99,,2013-06-16 04:33:00,
2013-06-15 23:42:00,68.0,66.0,29.99,North,0,0.0,-999.0,93,-99.99,,,-99.99,,2013-06-16 04:42:00,
2013-06-15 23:53:00,66.0,64.0,29.99,North,0,0.0,-999.0,93,-99.99,,,-99.99,,2013-06-16 04:53:00,